Temp
60 59 58 58 58 60 59 60 60 60 61 61 61 61 60 62 61 61 62 63 63 62 62 62 62 62 62 63 62 62 61 62 62 61 60 60 62 60 59 59 59 60 59 57 61 60 57 54 54 59 60 60 60 60 60 59 58 57 56 56 58 57 57
59 59 59 59 58 58 58 57 58 58 58 58 59 60 60 60 62 61 61 61 62 63 64 62 62 63 63 62 61 61 61 61 62 62 62 61 60 59 58 58 58 58 58 58 56 57 56 55 54 56 55 59 60 58 58 58 57 57 57 57 59 58 57
58 57 58 57 56 57 57 56 56 57 57 57 57 58 59 60 61 61 60 61 61 62 63 62 62 62 62 62 62 61 61 61 61 62 62 61 60 59 60 59 58 58 59 60 57 57 59 58 56 55 56 56 55 56 57 56 57 56 56 56 56 57 56
56 57 57 56 55 56 57 55 55 55 56 56 57 57 57 57 58 61 60 60 61 63 62 62 62 62 62 62 61 61 61 61 60 61 61 60 60 60 60 61 61 62 60 58 58 58 58 55 55 55 55 57 57 55 57 57 57 57 57 56 56 55 55
58 58 58 56 56 56 55 55 55 56 56 56 56 56 57 57 58 58 59 59 60 61 61 61 62 62 62 61 60 61 60 60 60 60 60 59 60 60 60 61 61 62 61 61 61 60 60 58 58 56 55 55 56 56 58 57 57 57 57 57 57 56 55
58 58 58 57 55 56 56 56 56 56 56 58 58 58 57 57 57 57 58 59 59 60 60 60 60 61 61 61 61 60 60 60 60 60 59 60 60 60 61 60 61 59 60 59 60 59 58 59 58 56 54 55 53 54 57 55 57 58 58 59 59 57 57
58 58 57 57 56 56 57 57 57 57 57 58 57 57 56 57 57 57 58 58 58 59 59 59 59 60 60 61 60 60 60 60 59 59 59 59 60 61 60 59 60 59 58 59 59 60 59 59 58 58 53 52 54 55 55 55 56 58 59 58 58 59 58
58 57 57 58 57 57 56 57 57 56 58 57 57 57 57 56 56 57 57 57 58 58 58 59 59 59 60 60 61 60 59 59 59 59 58 58 59 58 59 60 59 58 58 58 59 61 63 62 60 58 57 53 52 53 53 54 55 55 57 58 58 60 58
59 57 57 58 57 58 57 58 57 56 57 56 56 57 57 56 56 56 57 56 57 58 58 58 58 59 59 59 58 58 57 58 58 58 57 58 59 58 59 58 60 59 58 58 60 60 62 62 61 59 60 58 54 51 51 54 54 54 56 59 59 59 59
57 57 58 57 57 57 57 57 57 56 56 56 57 56 55 54 54 56 56 56 56 57 57 57 57 57 58 58 57 56 56 56 57 57 56 58 58 58 58 59 60 59 57 58 59 59 59 60 61 60 62 60 58 55 51 51 53 52 58 56 59 61 59
58 58 58 58 57 57 56 56 56 57 56 57 57 57 55 55 56 57 55 55 55 56 56 57 57 57 57 56 55 55 55 55 55 55 56 56 55 57 56 57 58 59 57 59 59 58 59 59 59 60 59 59 60 57 53 53 53 52 56 55 55 61 57
57 57 58 58 57 57 56 56 56 56 55 56 57 56 55 54 54 54 54 54 55 55 55 56 56 56 56 56 56 55 54 55 56 54 55 56 55 56 56 56 55 57 56 58 58 58 58 58 58 58 57 58 58 58 57 55 54 55 55 58 57 57 60
58 58 58 57 57 57 57 56 55 55 56 56 54 54 54 54 54 54 54 54 55 55 55 54 55 55 55 55 55 56 54 55 56 55 55 55 56 55 55 56 55 56 55 57 58 58 58 58 58 58 57 57 54 55 56 55 55 57 54 58 58 58 57
57 57 56 57 57 56 56 56 56 56 55 55 54 54 54 53 53 54 54 55 55 55 55 55 54 55 55 54 54 54 54 55 56 55 56 55 55 56 56 55 54 54 55 57 57 57 58 58 57 57 57 57 55 55 57 53 54 54 57 53 53 57 57
57 57 57 56 56 56 56 56 55 55 56 54 54 55 54 53 53 54 55 54 54 54 54 54 53 54 55 55 54 55 54 55 55 54 55 55 55 55 54 55 54 54 55 57 57 59 59 58 59 58 58 58 58 56 56 55 53 54 56 56 57 55 56
57 57 57 56 56 56 56 55 56 56 55 53 53 54 53 53 53 53 53 53 53 53 53 53 53 54 54 55 55 54 54 54 56 56 56 55 55 54 55 54 54 54 55 56 56 57 57 59 59 60 58 58 58 56 57 56 54 55 56 56 56 58 56
56 57 57 56 56 55 55 55 55 55 54 53 54 52 52 52 52 53 53 53 53 53 53 53 53 53 53 54 55 54 53 53 54 55 56 55 55 55 55 55 54 54 56 55 55 56 56 57 58 59 58 56 57 57 57 54 57 54 55 57 56 60 57
56 56 56 56 56 55 55 55 55 55 53 53 53 53 52 51 52 53 54 54 53 53 53 52 53 53 52 52 53 54 53 53 53 53 54 54 55 54 55 56 54 54 55 56 54 55 55 56 58 57 58 57 57 56 56 57 57 54 56 57 57 55 54
56 56 56 56 56 56 55 55 54 53 54 54 52 52 52 53 54 52 52 52 53 52 52 52 53 53 53 52 52 52 53 53 53 53 53 53 54 53 55 54 54 54 56 57 56 55 55 56 55 56 57 57 58 56 56 55 55 56 58 58 57 56 54
55 55 56 55 55 55 55 54 55 54 53 54 54 53 52 53 53 52 52 52 53 52 52 52 52 52 52 52 53 53 53 52 52 53 53 53 54 53 53 54 53 53 55 56 56 55 55 54 55 55 56 55 57 57 55 56 56 57 57 56 55 56 57
55 55 55 55 54 54 54 54 54 53 54 54 54 54 54 54 53 53 52 52 52 52 52 52 51 51 52 52 53 53 53 54 54 54 54 54 53 53 53 53 53 53 54 54 56 55 56 56 55 55 54 55 55 56 56 54 54 55 55 55 56 55 53
55 55 55 54 53 53 53 53 53 53 54 53 54 53 53 54 54 54 53 53 53 53 53 53 53 53 53 53 53 54 53 54 54 55 55 55 54 54 54 53 53 52 55 56 53 53 54 55 57 56 53 54 55 55 55 54 55 54 54 54 54 52 53
55 55 55 54 54 54 53 53 53 53 52 52 53 53 53 53 54 54 55 54 53 53 53 53 54 52 52 55 52 54 53 53 54 54 55 56 55 54 54 53 54 58 56 55 52 49 48 50 54 58 56 55 55 55 55 54 54 55 55 54 55 53 53
53 53 53 53 53 54 54 54 54 53 53 52 52 52 52 52 51 52 53 54 54 53 53 54 49 46 45 48 52 53 54 53 53 54 54 55 56 57 56 55 53 55 57 55 55 48 46 46 46 48 50 52 55 58 55 54 54 54 54 56 53 52 54
50 50 51 51 51 51 51 52 52 52 53 53 53 53 53 52 52 51 51 52 52 53 53 49 43 44 45 45 47 52 53 54 54 53 54 54 55 55 56 56 56 55 56 55 55 54 50 46 45 46 46 46 47 49 51 57 56 52 53 55 53 54 54
49 49 49 50 50 50 50 49 49 49 49 51 52 51 51 52 52 52 52 52 52 51 51 43 40 40 41 42 44 47 53 53 54 54 54 54 54 55 55 55 55 55 56 56 57 55 55 54 47 46 47 46 46 45 45 43 45 56 56 56 56 54 53
48 49 49 49 49 50 49 48 47 47 48 49 48 49 49 50 50 51 51 51 51 51 51 44 41 41 41 40 41 45 52 53 53 54 54 55 55 55 55 55 56 57 56 56 56 54 55 54 53 52 52 52 53 49 44 45 43 43 50 57 56 57 56
48 48 49 49 49 49 48 48 47 47 46 46 46 46 46 47 48 48 48 49 49 49 48 41 40 40 41 40 40 44 49 50 52 53 53 53 54 54 55 55 55 56 56 55 54 54 54 54 53 53 53 53 52 52 52 51 52 52 52 52 53 55 55
46 47 48 47 47 47 48 47 46 46 48 47 46 46 46 46 45 46 46 47 47 47 47 41 41 41 41 41 43 50 49 50 50 51 52 53 53 53 54 54 54 54 55 54 51 46 49 53 53 53 53 53 51 49 49 46 43 43 49 52 54 55 55
45 45 46 45 45 46 46 46 45 45 45 46 46 45 44 44 45 45 46 46 45 45 46 43 41 41 41 41 45 49 50 50 50 50 51 52 53 53 54 55 54 54 54 55 50 45 43 47 53 53 53 53 53 51 49 46 41 40 40 41 42 43 44
46 46 45 44 43 43 44 46 45 45 44 43 44 45 45 44 44 44 44 44 46 44 45 44 41 41 41 41 44 48 49 49 50 51 51 52 52 53 53 52 54 55 54 54 47 44 41 48 54 54 54 53 53 51 50 47 46 44 40 40 39 39 39
45 45 44 44 44 43 43 43 44 44 44 44 43 44 45 44 44 44 43 43 46 44 43 44 41 40 40 41 44 47 47 48 48 49 51 51 52 52 52 51 50 50 52 51 45 43 41 47 55 54 54 54 54 54 54 49 47 47 47 47 46 46 45
45 45 44 45 45 44 44 43 42 42 43 44 43 43 43 42 41 42 42 42 42 42 43 43 43 40 41 40 41 45 46 46 46 47 48 49 50 51 52 52 51 45 42 42 43 43 41 42 53 54 53 52 52 53 53 47 47 48 48 48 46 46 45
44 43 43 43 44 44 44 43 43 42 41 42 42 41 42 42 41 41 41 41 41 42 43 43 43 40 40 40 40 41 44 44 45 46 46 47 48 49 50 51 51 47 43 42 41 42 42 41 43 52 53 53 54 53 45 49 47 44 48 46 45 45 45
43 44 43 43 42 41 42 43 43 42 42 42 42 41 41 41 41 41 41 41 41 41 43 43 42 42 40 40 40 40 42 43 42 43 44 45 47 48 49 50 50 48 44 42 41 41 42 42 42 46 50 45 45 41 49 49 47 47 47 46 46 45 45
43 44 43 42 41 41 41 41 41 41 41 41 41 40 40 40 40 40 41 41 41 41 41 42 42 42 41 40 40 40 39 40 37 41 43 43 45 46 48 49 49 46 42 42 41 41 41 41 42 45 43 42 42 41 43 47 46 46 46 46 45 44 44
40 40 41 40 40 40 40 40 40 40 39 39 39 40 39 39 39 39 39 39 40 41 41 40 41 40 41 40 39 39 39 38 38 40 41 42 44 45 45 46 46 42 41 40 40 40 40 40 44 42 40 41 41 41 46 45 45 46 45 44 44 43 43
MSLP
1017.46 1017.66 1017.78 1017.94 1018.06 1018.18 1018.38 1018.54 1018.62 1018.78 1018.82 1018.90 1019.06 1019.18 1019.26 1019.42 1019.58 1019.70 1019.78 1019.90 1020.02 1020.22 1020.38 1020.50 1020.58 1020.74 1020.90 1021.10 1021.22 1021.38 1021.42 1021.66 1021.66 1021.90 1022.30 1022.26 1022.22 1022.50 1022.78 1022.54 1022.46 1022.54 1022.70 1022.62 1022.82 1023.30 1024.38 1025.46 1025.94 1025.70 1025.62 1025.66 1025.66 1025.74 1025.78 1025.82 1025.82 1025.82 1025.78 1025.82 1025.82 1025.82 1025.86
1017.46 1017.66 1017.86 1018.02 1018.14 1018.26 1018.50 1018.70 1018.78 1018.94 1019.02 1019.10 1019.18 1019.26 1019.38 1019.46 1019.54 1019.66 1019.78 1019.90 1020.02 1020.14 1020.30 1020.50 1020.62 1020.70 1020.82 1021.06 1021.26 1021.42 1021.42 1021.58 1021.66 1021.70 1021.86 1022.02 1022.10 1022.58 1022.86 1022.86 1022.78 1022.82 1022.86 1023.02 1023.30 1023.34 1024.02 1025.26 1025.94 1025.74 1025.90 1025.78 1025.74 1025.94 1026.02 1025.98 1026.02 1026.02 1025.98 1025.98 1025.98 1026.06 1026.06
1017.62 1017.90 1017.98 1018.22 1018.38 1018.50 1018.66 1018.86 1018.98 1019.06 1019.14 1019.22 1019.30 1019.38 1019.42 1019.50 1019.58 1019.70 1019.82 1019.90 1020.02 1020.10 1020.22 1020.46 1020.58 1020.74 1020.86 1020.94 1021.06 1021.14 1021.26 1021.38 1021.54 1021.62 1021.66 1022.06 1022.38 1022.38 1022.18 1022.54 1022.70 1023.06 1022.98 1023.18 1023.42 1023.58 1023.98 1024.14 1024.90 1025.74 1025.70 1025.74 1026.02 1026.30 1026.14 1026.14 1026.18 1026.22 1026.18 1026.14 1026.14 1026.22 1026.26
1017.82 1017.98 1018.30 1018.50 1018.58 1018.66 1018.70 1018.90 1018.98 1019.06 1019.10 1019.14 1019.22 1019.26 1019.34 1019.46 1019.58 1019.70 1019.82 1019.94 1020.02 1020.10 1020.22 1020.38 1020.50 1020.66 1020.78 1020.90 1021.02 1021.18 1021.26 1021.30 1021.50 1021.62 1021.82 1021.94 1022.06 1022.18 1022.26 1022.14 1022.34 1022.38 1022.46 1022.74 1023.06 1023.34 1023.54 1024.38 1025.22 1025.78 1025.86 1025.90 1026.06 1026.38 1026.42 1026.42 1026.34 1026.34 1026.30 1026.26 1026.26 1026.38 1026.42
1017.74 1018.06 1018.26 1018.54 1018.66 1018.70 1018.82 1018.94 1019.06 1019.10 1019.14 1019.18 1019.22 1019.22 1019.26 1019.38 1019.50 1019.70 1019.86 1019.98 1020.02 1020.10 1020.18 1020.30 1020.42 1020.58 1020.74 1020.90 1021.02 1021.14 1021.26 1021.34 1021.42 1021.58 1021.74 1021.90 1021.98 1022.06 1022.06 1022.02 1022.18 1022.10 1022.18 1022.22 1022.70 1022.94 1023.22 1023.94 1024.22 1025.26 1025.70 1026.02 1026.22 1026.46 1026.54 1026.46 1026.46 1026.34 1026.38 1026.42 1026.50 1026.50 1026.54
1017.74 1017.98 1018.26 1018.58 1018.78 1018.78 1018.94 1018.98 1019.02 1019.14 1019.22 1019.22 1019.26 1019.26 1019.30 1019.30 1019.42 1019.58 1019.74 1019.86 1019.98 1020.02 1020.10 1020.26 1020.38 1020.54 1020.70 1020.86 1020.98 1021.14 1021.22 1021.30 1021.38 1021.46 1021.66 1021.74 1021.82 1021.86 1021.86 1021.98 1022.14 1022.18 1022.18 1022.38 1022.66 1023.06 1023.46 1023.82 1024.22 1025.18 1025.94 1025.86 1025.98 1026.46 1026.42 1026.46 1026.30 1026.42 1026.42 1026.46 1026.50 1026.58 1026.50
1017.82 1018.06 1018.34 1018.54 1018.78 1018.82 1018.90 1018.90 1018.98 1019.02 1019.10 1019.10 1019.18 1019.26 1019.42 1019.46 1019.50 1019.66 1019.74 1019.82 1019.94 1020.06 1020.18 1020.30 1020.42 1020.50 1020.62 1020.74 1020.90 1021.06 1021.18 1021.22 1021.38 1021.46 1021.54 1021.70 1021.82 1021.82 1021.90 1022.10 1022.14 1022.10 1022.26 1022.50 1022.82 1023.02 1023.50 1023.94 1024.42 1024.66 1025.54 1026.14 1026.26 1026.34 1026.42 1026.38 1026.46 1026.34 1026.38 1026.38 1026.46 1026.42 1026.38
1017.86 1018.14 1018.38 1018.50 1018.66 1018.86 1019.02 1018.98 1019.10 1019.14 1019.02 1019.14 1019.22 1019.38 1019.46 1019.46 1019.58 1019.70 1019.82 1019.94 1020.02 1020.14 1020.26 1020.34 1020.46 1020.54 1020.66 1020.78 1020.90 1021.06 1021.22 1021.30 1021.38 1021.50 1021.66 1021.74 1021.90 1021.94 1021.98 1021.98 1022.10 1022.18 1022.34 1022.66 1022.78 1022.98 1023.02 1023.26 1023.82 1024.46 1024.86 1025.90 1026.46 1026.50 1026.46 1026.46 1026.38 1026.22 1026.22 1026.22 1026.30 1026.26 1026.30
1017.98 1018.18 1018.42 1018.58 1018.66 1018.66 1018.78 1018.86 1019.02 1019.10 1019.14 1019.22 1019.42 1019.42 1019.50 1019.50 1019.54 1019.62 1019.82 1019.98 1020.10 1020.22 1020.30 1020.42 1020.54 1020.62 1020.74 1020.86 1021.02 1021.18 1021.30 1021.42 1021.42 1021.54 1021.62 1021.74 1021.78 1021.86 1021.94 1022.14 1022.18 1022.18 1022.50 1022.70 1022.82 1022.94 1023.06 1023.22 1023.54 1023.94 1024.14 1024.54 1025.42 1026.54 1026.54 1026.46 1026.42 1026.18 1026.30 1026.06 1026.14 1026.18 1026.22
1017.94 1018.06 1018.22 1018.42 1018.58 1018.70 1018.74 1018.86 1018.90 1019.06 1019.22 1019.30 1019.38 1019.46 1019.50 1019.58 1019.62 1019.62 1019.74 1019.94 1020.10 1020.22 1020.34 1020.46 1020.58 1020.66 1020.78 1020.90 1021.02 1021.14 1021.26 1021.42 1021.46 1021.50 1021.66 1021.70 1021.82 1021.98 1022.06 1022.10 1022.10 1022.26 1022.58 1022.74 1022.90 1023.14 1023.22 1023.38 1023.46 1023.66 1023.70 1024.02 1024.50 1025.34 1026.46 1026.46 1026.42 1026.26 1026.14 1026.14 1026.02 1025.98 1026.10
1017.74 1017.94 1018.10 1018.30 1018.54 1018.66 1018.82 1018.90 1019.02 1019.06 1019.18 1019.26 1019.34 1019.46 1019.54 1019.58 1019.66 1019.74 1019.82 1019.98 1020.10 1020.22 1020.30 1020.46 1020.54 1020.66 1020.78 1020.94 1021.02 1021.06 1021.18 1021.30 1021.42 1021.66 1021.70 1021.70 1021.86 1021.98 1022.10 1022.22 1022.22 1022.26 1022.62 1022.66 1022.78 1023.06 1023.18 1023.34 1023.62 1023.74 1023.90 1024.06 1024.14 1024.70 1025.42 1025.86 1025.94 1026.10 1025.82 1026.10 1026.14 1025.82 1026.10
1017.98 1018.10 1018.26 1018.42 1018.58 1018.66 1018.82 1018.94 1018.98 1019.06 1019.22 1019.30 1019.34 1019.46 1019.54 1019.62 1019.74 1019.86 1019.94 1020.02 1020.18 1020.30 1020.38 1020.50 1020.62 1020.74 1020.82 1020.94 1021.10 1021.14 1021.30 1021.26 1021.26 1021.42 1021.66 1021.66 1021.82 1021.90 1021.98 1022.10 1022.26 1022.30 1022.62 1022.74 1022.86 1023.06 1023.26 1023.42 1023.62 1023.82 1024.02 1024.14 1024.30 1024.22 1024.70 1025.26 1025.74 1025.86 1026.02 1025.78 1025.86 1025.98 1025.78
1018.10 1018.22 1018.38 1018.50 1018.66 1018.70 1018.82 1018.94 1019.02 1019.06 1019.14 1019.26 1019.34 1019.46 1019.50 1019.62 1019.74 1019.86 1019.98 1020.06 1020.14 1020.26 1020.38 1020.54 1020.58 1020.66 1020.78 1020.94 1021.10 1021.14 1021.34 1021.34 1021.38 1021.46 1021.62 1021.74 1021.82 1021.90 1021.94 1022.02 1022.18 1022.22 1022.62 1022.82 1022.94 1023.10 1023.26 1023.46 1023.54 1023.70 1023.90 1024.14 1024.34 1024.54 1024.58 1024.74 1024.90 1025.06 1025.74 1025.50 1025.50 1025.70 1025.82
1018.14 1018.34 1018.50 1018.58 1018.62 1018.82 1018.90 1018.98 1019.02 1019.06 1019.26 1019.30 1019.38 1019.46 1019.50 1019.58 1019.70 1019.82 1019.94 1020.06 1020.10 1020.22 1020.34 1020.50 1020.66 1020.70 1020.78 1020.98 1021.22 1021.34 1021.42 1021.50 1021.46 1021.66 1021.62 1021.70 1021.90 1021.94 1021.98 1022.06 1022.18 1022.34 1022.62 1022.62 1022.90 1023.10 1023.30 1023.46 1023.66 1023.82 1023.98 1024.06 1024.26 1024.50 1024.50 1024.70 1024.82 1025.26 1025.58 1025.94 1025.78 1025.62 1025.82
1018.06 1018.22 1018.34 1018.58 1018.66 1018.82 1018.90 1019.02 1019.10 1019.22 1019.18 1019.42 1019.50 1019.50 1019.58 1019.70 1019.74 1019.82 1019.90 1020.10 1020.22 1020.34 1020.46 1020.58 1020.74 1020.78 1020.78 1020.98 1021.26 1021.42 1021.46 1021.50 1021.50 1021.58 1021.58 1021.66 1021.86 1021.98 1022.10 1022.18 1022.30 1022.46 1022.66 1022.62 1022.86 1022.98 1023.18 1023.46 1023.62 1023.78 1023.94 1023.94 1024.10 1024.34 1024.38 1024.38 1024.94 1025.02 1025.22 1025.62 1025.54 1025.98 1025.82
1017.90 1018.02 1018.22 1018.50 1018.66 1018.74 1018.90 1019.06 1019.18 1019.14 1019.30 1019.50 1019.66 1019.62 1019.70 1019.74 1019.82 1019.90 1019.98 1020.22 1020.34 1020.46 1020.54 1020.66 1020.82 1020.82 1020.90 1020.98 1021.18 1021.46 1021.58 1021.50 1021.42 1021.50 1021.58 1021.70 1021.86 1022.06 1022.14 1022.34 1022.38 1022.54 1022.70 1022.70 1022.94 1023.10 1023.22 1023.34 1023.54 1023.58 1023.74 1023.98 1024.02 1024.22 1024.34 1024.26 1024.50 1024.90 1025.06 1025.22 1025.46 1025.54 1025.66
1018.06 1018.18 1018.22 1018.38 1018.50 1018.74 1018.94 1019.14 1019.30 1019.30 1019.46 1019.62 1019.62 1019.86 1019.86 1019.86 1019.90 1019.94 1020.02 1020.22 1020.38 1020.50 1020.62 1020.74 1020.90 1020.98 1021.06 1021.06 1021.18 1021.38 1021.54 1021.66 1021.70 1021.66 1021.62 1021.74 1021.90 1021.98 1022.02 1022.22 1022.46 1022.58 1022.62 1022.70 1022.90 1023.02 1023.22 1023.30 1023.42 1023.54 1023.74 1023.94 1024.06 1024.14 1024.26 1024.34 1024.18 1024.38 1024.98 1024.98 1025.34 1025.18 1025.46
1018.26 1018.42 1018.50 1018.50 1018.58 1018.82 1019.02 1019.18 1019.30 1019.38 1019.58 1019.66 1019.78 1019.86 1019.94 1019.98 1019.98 1020.02 1020.06 1020.22 1020.38 1020.50 1020.66 1020.78 1020.86 1021.02 1021.18 1021.30 1021.30 1021.34 1021.50 1021.66 1021.74 1021.82 1021.82 1021.82 1021.90 1021.90 1021.98 1022.02 1022.34 1022.50 1022.54 1022.58 1022.90 1022.98 1023.14 1023.18 1023.38 1023.54 1023.58 1023.86 1024.02 1024.22 1024.38 1024.34 1024.26 1024.26 1024.54 1024.66 1024.78 1025.30 1025.46
1018.42 1018.54 1018.70 1018.54 1018.58 1018.74 1019.02 1019.18 1019.30 1019.50 1019.54 1019.62 1019.86 1019.94 1019.94 1020.02 1019.94 1019.98 1020.10 1020.22 1020.38 1020.54 1020.70 1020.78 1020.86 1020.94 1021.14 1021.30 1021.42 1021.58 1021.66 1021.70 1021.78 1021.86 1021.94 1021.98 1021.98 1022.02 1021.98 1022.10 1022.30 1022.46 1022.42 1022.34 1022.62 1022.90 1023.14 1023.14 1023.42 1023.46 1023.54 1023.78 1023.94 1024.10 1024.22 1024.34 1024.30 1024.22 1024.18 1024.26 1024.54 1024.98 1025.46
1018.66 1018.78 1018.98 1018.98 1018.86 1018.90 1019.02 1019.22 1019.30 1019.42 1019.58 1019.54 1019.62 1019.78 1019.94 1019.94 1020.02 1020.02 1020.10 1020.22 1020.30 1020.46 1020.66 1020.82 1020.94 1021.06 1021.18 1021.30 1021.38 1021.50 1021.66 1021.78 1021.90 1021.94 1022.06 1022.18 1022.38 1022.42 1022.34 1022.30 1022.38 1022.50 1022.42 1022.38 1022.50 1022.66 1022.98 1023.22 1023.30 1023.30 1023.46 1023.62 1023.82 1023.94 1024.10 1024.14 1024.26 1024.26 1024.30 1024.46 1024.86 1024.90 1024.98
1018.78 1018.98 1019.10 1019.22 1019.46 1019.46 1019.38 1019.30 1019.38 1019.50 1019.54 1019.50 1019.54 1019.62 1019.70 1019.78 1020.02 1020.06 1020.14 1020.22 1020.42 1020.46 1020.62 1020.78 1020.94 1021.10 1021.22 1021.30 1021.34 1021.42 1021.54 1021.66 1021.82 1022.02 1022.06 1022.22 1022.38 1022.46 1022.58 1022.66 1022.70 1022.74 1022.66 1022.62 1022.58 1022.78 1022.98 1022.94 1023.34 1023.34 1023.78 1023.82 1023.86 1023.90 1023.98 1024.18 1024.30 1024.38 1024.46 1024.54 1024.54 1024.70 1025.06
1018.82 1019.14 1019.18 1019.38 1019.58 1019.74 1019.58 1019.54 1019.54 1019.58 1019.62 1019.62 1019.66 1019.70 1019.78 1019.82 1019.82 1019.94 1020.14 1020.30 1020.34 1020.46 1020.46 1020.62 1020.82 1020.94 1020.98 1021.14 1021.22 1021.26 1021.42 1021.50 1021.62 1021.78 1021.98 1022.10 1022.22 1022.30 1022.46 1022.58 1022.66 1022.78 1022.90 1022.98 1023.06 1022.94 1022.86 1022.90 1023.02 1023.22 1023.66 1023.74 1023.78 1023.82 1023.94 1024.14 1024.22 1024.38 1024.50 1024.54 1024.62 1024.94 1024.90
1019.02 1019.26 1019.42 1019.54 1019.66 1019.70 1019.70 1019.74 1019.78 1019.74 1019.82 1019.90 1019.86 1019.86 1019.86 1019.90 1019.90 1019.86 1019.90 1020.10 1020.30 1020.42 1020.38 1020.54 1020.70 1020.86 1020.98 1020.94 1021.02 1021.14 1021.26 1021.34 1021.46 1021.58 1021.70 1021.86 1022.02 1022.18 1022.26 1022.42 1022.54 1022.58 1022.70 1022.78 1022.90 1023.02 1023.06 1023.06 1022.98 1022.86 1022.94 1023.34 1023.46 1023.66 1023.78 1023.98 1024.14 1024.22 1024.34 1024.46 1024.42 1024.66 1024.70
1019.74 1019.86 1020.14 1020.18 1020.06 1019.98 1019.98 1019.98 1020.06 1020.10 1020.14 1020.14 1020.22 1020.22 1020.22 1020.22 1020.30 1020.26 1020.06 1020.02 1020.10 1020.34 1020.62 1020.98 1021.02 1021.06 1021.14 1021.26 1021.18 1021.02 1020.98 1021.14 1021.34 1021.42 1021.50 1021.58 1021.66 1021.74 1021.90 1022.10 1022.30 1022.42 1022.50 1022.58 1022.74 1022.86 1022.94 1022.98 1023.02 1023.06 1023.02 1022.94 1022.86 1022.98 1023.42 1023.78 1023.86 1024.10 1024.10 1024.06 1024.38 1024.66 1024.50
1020.34 1020.62 1020.66 1020.74 1020.66 1020.70 1020.66 1020.62 1020.82 1020.90 1020.74 1020.62 1020.74 1020.66 1020.58 1020.66 1020.58 1020.58 1020.54 1020.46 1020.38 1020.50 1020.66 1020.98 1021.06 1021.14 1021.22 1021.30 1021.46 1021.42 1021.38 1021.26 1021.30 1021.34 1021.42 1021.54 1021.58 1021.66 1021.66 1021.74 1021.94 1022.14 1022.18 1022.26 1022.42 1022.58 1022.78 1022.94 1022.98 1023.02 1023.06 1023.18 1023.34 1023.38 1023.30 1023.22 1023.42 1024.02 1024.06 1023.98 1024.18 1024.10 1024.34
1021.02 1021.02 1021.14 1021.18 1021.14 1021.22 1021.30 1021.42 1021.62 1021.62 1021.58 1021.62 1021.34 1021.22 1021.30 1021.02 1020.98 1021.02 1020.82 1020.70 1020.86 1021.10 1021.46 1021.82 1021.62 1021.62 1021.70 1021.74 1021.66 1021.46 1021.38 1021.46 1021.46 1021.50 1021.58 1021.62 1021.66 1021.66 1021.74 1021.78 1021.82 1021.98 1022.06 1022.14 1022.22 1022.34 1022.46 1022.62 1022.94 1023.06 1023.10 1023.26 1023.34 1023.30 1023.30 1023.46 1023.50 1023.30 1023.54 1023.74 1023.74 1023.94 1024.02
1021.46 1021.58 1021.54 1021.50 1021.46 1021.66 1021.86 1022.18 1022.38 1022.42 1022.34 1022.22 1022.14 1022.02 1021.86 1021.70 1021.62 1021.54 1021.50 1021.38 1021.46 1021.82 1022.14 1022.34 1022.06 1021.98 1021.90 1021.78 1021.70 1021.70 1021.70 1021.66 1021.58 1021.58 1021.58 1021.58 1021.62 1021.58 1021.62 1021.70 1021.74 1021.74 1021.94 1022.18 1022.26 1022.30 1022.38 1022.46 1022.66 1022.82 1022.90 1022.94 1022.98 1023.18 1023.26 1023.22 1023.26 1023.34 1023.34 1023.30 1023.46 1023.54 1023.70
1021.90 1022.02 1022.10 1022.10 1021.98 1022.10 1022.46 1022.70 1022.74 1022.82 1022.82 1022.94 1022.90 1022.78 1022.62 1022.42 1022.30 1022.18 1022.14 1022.10 1022.10 1022.34 1022.74 1022.58 1022.26 1022.18 1022.18 1022.14 1021.94 1021.70 1021.62 1021.62 1021.70 1021.74 1021.78 1021.78 1021.70 1021.70 1021.70 1021.86 1021.94 1021.94 1021.90 1022.06 1022.22 1022.38 1022.38 1022.38 1022.46 1022.58 1022.70 1022.82 1022.86 1022.94 1023.02 1023.02 1023.06 1023.10 1023.22 1023.38 1023.30 1023.22 1023.46
1022.26 1022.46 1022.54 1022.70 1022.62 1022.58 1022.78 1023.14 1023.38 1023.30 1023.06 1023.02 1023.10 1023.10 1022.98 1022.86 1022.78 1022.70 1022.66 1022.54 1022.50 1022.74 1022.98 1022.94 1022.70 1022.50 1022.26 1022.14 1022.10 1022.02 1022.06 1021.98 1021.86 1021.74 1021.62 1021.66 1021.78 1021.86 1021.90 1021.90 1021.90 1021.94 1021.94 1021.98 1021.98 1022.30 1022.46 1022.66 1022.70 1022.58 1022.54 1022.62 1022.78 1022.98 1023.06 1023.38 1023.42 1023.38 1023.26 1023.10 1022.98 1022.94 1023.06
1022.62 1022.86 1022.94 1023.06 1023.18 1023.10 1023.18 1023.30 1023.54 1023.74 1023.58 1023.38 1023.26 1023.30 1023.38 1023.34 1023.26 1023.10 1023.10 1023.10 1023.14 1023.30 1023.26 1023.26 1023.06 1022.86 1022.66 1022.46 1022.14 1022.26 1022.22 1022.18 1022.14 1022.10 1021.98 1021.86 1021.86 1021.82 1021.86 1021.90 1021.90 1021.82 1021.74 1021.66 1021.62 1021.86 1022.14 1022.46 1022.58 1022.58 1022.50 1022.50 1022.62 1022.94 1022.94 1023.46 1023.66 1023.54 1023.46 1023.42 1023.34 1023.34 1023.34
1022.94 1023.10 1022.98 1023.10 1023.54 1023.58 1023.54 1023.62 1023.78 1023.98 1024.06 1023.90 1023.70 1023.62 1023.50 1023.30 1023.34 1023.42 1023.46 1023.54 1023.66 1023.78 1023.82 1023.74 1023.62 1023.46 1023.30 1023.06 1022.90 1022.78 1022.74 1022.50 1022.26 1022.10 1021.94 1021.82 1021.86 1021.82 1021.74 1021.70 1021.74 1021.74 1021.70 1021.58 1021.54 1021.78 1022.06 1022.22 1022.26 1022.18 1022.22 1022.26 1022.42 1022.50 1022.54 1023.18 1023.50 1023.58 1023.62 1023.62 1023.66 1023.66 1023.54
1023.42 1023.58 1023.78 1023.98 1023.98 1024.02 1024.10 1024.18 1024.22 1024.10 1024.18 1024.22 1024.18 1023.90 1023.50 1023.34 1023.38 1023.54 1023.74 1023.94 1023.98 1024.06 1024.14 1024.06 1023.98 1023.94 1023.78 1023.62 1023.38 1023.18 1023.06 1022.94 1022.70 1022.62 1022.42 1022.10 1021.82 1021.78 1021.66 1021.62 1021.66 1021.70 1021.66 1021.50 1021.54 1021.70 1021.94 1022.06 1021.94 1021.90 1021.82 1021.94 1022.06 1022.10 1021.90 1022.54 1023.06 1023.18 1023.38 1023.42 1023.62 1023.54 1023.70
1023.86 1024.06 1024.22 1024.34 1024.38 1024.38 1024.38 1024.30 1024.14 1024.22 1024.54 1024.66 1024.58 1024.22 1023.98 1023.86 1023.82 1023.98 1024.06 1024.02 1024.14 1024.26 1024.26 1024.26 1024.18 1024.10 1024.02 1023.94 1023.78 1023.58 1023.38 1023.18 1023.14 1023.10 1022.90 1022.66 1022.30 1021.90 1021.78 1021.58 1021.46 1021.54 1021.62 1021.66 1021.58 1021.58 1021.78 1021.90 1021.66 1021.62 1021.78 1021.98 1022.02 1021.78 1021.78 1022.54 1022.86 1022.82 1022.90 1022.94 1023.30 1023.50 1023.54
1024.26 1024.42 1024.50 1024.50 1024.42 1024.34 1024.26 1024.18 1024.22 1024.30 1024.50 1024.74 1024.86 1024.58 1024.42 1024.26 1024.18 1024.30 1024.38 1024.38 1024.34 1024.34 1024.34 1024.30 1024.18 1024.06 1023.90 1023.86 1023.86 1023.70 1023.62 1023.54 1023.50 1023.34 1023.14 1022.90 1022.66 1022.34 1021.98 1021.82 1021.66 1021.58 1021.62 1021.62 1021.62 1021.58 1021.62 1021.98 1021.94 1021.70 1021.54 1021.50 1021.38 1021.34 1021.86 1022.22 1022.38 1022.70 1022.94 1023.18 1023.34 1023.50 1023.62
1024.22 1024.42 1024.50 1024.54 1024.50 1024.58 1024.62 1024.58 1024.66 1024.82 1024.82 1024.70 1024.50 1024.46 1024.26 1024.10 1024.14 1024.14 1024.14 1024.06 1024.06 1024.06 1024.06 1024.02 1023.98 1023.82 1023.78 1023.74 1023.74 1023.70 1023.58 1023.54 1023.70 1023.58 1023.18 1022.86 1022.58 1022.30 1022.10 1021.90 1021.70 1021.66 1021.66 1021.66 1021.66 1021.58 1021.46 1021.42 1021.66 1022.14 1021.66 1021.30 1021.30 1021.58 1021.62 1021.86 1022.30 1022.66 1022.78 1023.14 1023.30 1023.50 1023.66
1024.42 1024.42 1024.46 1024.50 1024.54 1024.66 1024.78 1024.78 1024.82 1024.70 1024.54 1024.42 1024.26 1024.14 1024.14 1024.22 1024.30 1024.26 1024.18 1024.22 1024.22 1024.18 1024.14 1024.10 1024.06 1023.90 1023.66 1023.62 1023.66 1023.66 1023.70 1023.66 1023.62 1023.62 1023.42 1023.10 1022.82 1022.46 1022.14 1021.98 1021.70 1021.62 1021.62 1021.66 1021.66 1021.58 1021.50 1021.42 1021.46 1021.58 1021.38 1021.30 1021.30 1021.42 1021.66 1021.86 1022.22 1022.50 1022.82 1023.06 1023.22 1023.30 1023.58
1024.62 1024.66 1024.70 1024.66 1024.66 1024.66 1024.62 1024.58 1024.54 1024.54 1024.46 1024.46 1024.42 1024.34 1024.26 1024.22 1024.18 1024.14 1024.18 1024.22 1024.26 1024.34 1024.30 1024.26 1024.18 1024.14 1023.94 1023.66 1023.58 1023.58 1023.54 1023.54 1023.62 1023.62 1023.54 1023.34 1022.98 1022.70 1022.42 1022.14 1021.90 1021.78 1021.78 1021.66 1021.62 1021.50 1021.34 1021.22 1021.18 1020.98 1021.06 1021.14 1021.22 1021.50 1021.62 1021.94 1022.18 1022.26 1022.54 1022.86 1023.06 1023.30 1023.54
Wind_Speed
5 5 3 4 3 4 5 4 4 3 3 3 3 3 3 3 4 4 4 4 5 4 5 5 5 5 5 4 4 3 5 5 5 7 5 6 7 3 2 3 5 6 5 5 6 7 7 7 3 4 6 6 6 5 4 4 4 4 4 4 4 4 4
4 4 4 3 4 4 5 3 4 3 3 2 2 3 3 3 3 4 4 4 5 5 5 5 4 5 7 7 6 5 6 5 4 5 6 7 4 3 3 5 6 5 5 5 5 5 5 7 4 4 3 4 6 5 4 3 4 4 3 4 4 4 4
4 4 4 4 3 3 4 3 3 3 3 3 3 2 3 3 4 4 4 5 4 5 4 5 5 5 5 6 7 7 6 6 4 5 6 4 4 6 4 4 4 3 4 3 4 5 6 4 8 8 6 8 5 2 4 5 5 4 3 4 4 4 4
4 5 5 3 3 3 4 2 3 2 2 2 2 2 2 2 3 4 4 4 4 4 5 5 6 6 6 6 5 5 6 7 5 5 4 6 5 6 6 6 6 8 7 5 7 4 6 5 7 6 4 3 5 5 3 3 3 3 3 4 4 3 3
6 5 6 5 4 4 3 3 2 3 2 2 2 2 3 3 3 3 4 4 5 5 5 5 5 6 5 5 5 5 5 5 5 5 5 6 6 5 6 5 6 5 4 5 6 6 8 7 9 8 6 4 4 2 0 1 2 3 3 3 2 2 1
6 6 6 5 3 4 4 4 3 3 2 3 1 3 2 2 2 4 5 5 5 5 4 4 4 5 6 5 5 5 5 6 6 6 6 7 7 7 7 5 4 4 4 3 6 6 5 7 10 9 2 3 4 2 1 1 0 1 1 2 1 1 1
6 5 5 6 4 4 5 5 5 5 5 4 4 3 2 2 2 2 2 3 2 2 2 2 3 4 5 5 5 6 6 5 5 6 5 6 5 5 5 5 5 4 4 5 6 7 8 8 8 10 7 4 3 4 0 1 1 2 0 0 1 1 0
6 6 5 6 6 5 3 4 3 3 4 4 4 2 2 3 4 4 4 5 4 4 3 3 3 3 3 3 3 3 3 4 5 5 4 6 5 5 5 5 4 3 4 6 6 7 8 9 10 9 10 9 4 2 1 1 1 0 2 1 1 1 1
4 5 5 4 4 5 6 5 5 3 3 4 2 3 2 3 4 5 5 5 5 5 4 4 4 4 4 4 3 3 4 2 4 5 4 5 6 6 6 4 4 4 4 5 5 6 6 7 8 8 9 10 10 4 1 1 1 2 1 2 1 2 3
7 7 7 6 6 4 4 4 5 4 3 3 4 2 3 3 4 5 5 5 5 5 5 5 5 5 5 4 4 5 4 4 4 5 4 5 4 5 5 6 5 4 4 4 4 5 5 6 7 8 9 10 8 9 5 4 4 4 3 3 4 4 3
8 7 7 8 6 5 3 3 4 5 4 4 4 3 3 4 4 4 5 4 4 5 5 5 5 5 5 5 4 4 4 5 5 4 3 4 5 5 4 4 4 5 4 5 5 6 6 7 7 7 5 4 8 10 6 7 6 5 3 3 2 3 3
4 5 5 6 5 5 5 4 4 4 4 3 5 4 4 4 4 4 4 4 4 5 5 5 5 5 5 6 4 4 3 4 5 5 3 4 4 5 6 5 4 4 5 5 5 5 5 6 6 5 5 5 4 7 9 5 4 5 4 6 6 4 4
4 5 6 7 6 6 6 5 4 4 5 4 4 3 4 4 4 5 4 4 5 5 5 4 4 5 5 5 4 5 4 5 5 5 4 4 3 4 6 6 5 5 5 5 5 5 6 5 6 6 6 6 5 5 6 6 6 7 6 6 5 5 4
5 4 5 5 7 5 5 4 4 4 4 4 4 4 4 4 4 5 5 4 5 5 5 4 4 4 5 5 5 5 5 5 6 4 5 5 4 5 5 5 4 4 5 7 6 5 6 6 5 4 5 6 5 5 6 4 5 4 2 2 2 3 2
5 5 6 5 6 6 6 5 5 4 4 3 3 5 4 3 4 5 5 5 5 5 5 5 4 4 6 6 5 3 5 5 5 5 4 5 4 4 4 5 5 5 4 6 6 7 7 6 6 6 6 6 6 6 5 4 3 5 7 3 4 1 2
6 7 7 6 6 6 5 5 4 6 5 4 2 3 4 4 4 4 5 5 5 5 5 5 4 5 5 6 6 4 4 4 5 5 4 4 5 4 5 4 5 5 4 6 5 4 5 6 6 7 7 5 6 6 6 4 5 3 6 6 3 4 4
4 5 6 6 6 5 4 4 3 5 4 3 5 3 3 4 4 4 5 4 4 4 4 4 4 4 4 5 6 6 5 4 4 4 5 5 4 4 6 5 4 5 5 6 5 6 5 6 6 6 6 5 5 7 6 5 4 5 5 6 5 6 4
4 3 3 5 6 5 4 4 3 5 5 3 3 4 3 3 4 4 5 5 4 4 4 5 5 4 4 3 5 5 5 5 4 4 4 4 4 5 4 4 5 5 6 6 5 5 5 6 5 5 6 6 5 4 4 5 4 4 6 7 5 3 3
3 3 3 5 6 6 5 4 4 3 4 5 3 3 4 2 3 4 4 4 3 4 4 4 4 5 5 5 4 4 4 5 4 4 3 3 4 5 5 5 5 5 6 7 6 5 5 6 5 5 5 5 5 5 5 5 4 4 6 6 6 4 3
3 4 3 1 3 4 4 4 4 4 3 4 5 4 3 4 2 4 3 3 3 3 3 3 2 3 4 5 5 5 4 4 4 3 2 1 1 1 1 3 4 4 4 4 6 6 6 5 5 6 6 6 6 6 6 5 4 5 5 5 2 2 4
4 3 4 5 5 4 2 3 3 3 3 4 3 3 3 3 3 3 3 3 3 3 3 3 3 3 3 4 4 4 4 3 3 2 1 1 1 1 1 1 1 2 3 4 5 5 5 5 4 4 3 4 5 6 6 5 5 4 4 4 4 4 4
5 3 4 5 3 2 2 2 2 2 2 2 1 1 1 2 2 2 2 2 2 2 3 3 4 4 5 5 4 5 4 4 3 2 2 2 1 1 0 1 1 2 3 3 3 3 5 6 7 5 4 5 5 5 5 5 5 5 4 4 4 0 4
6 5 6 6 4 4 4 4 4 3 3 2 1 0 1 1 2 3 2 1 1 1 2 3 2 4 3 4 6 4 4 4 4 4 3 2 3 3 3 3 3 3 4 3 4 4 4 5 5 4 7 7 7 6 6 5 5 5 5 5 6 6 5
9 10 7 5 6 7 6 6 6 5 5 5 5 4 4 4 3 1 1 1 0 2 2 4 6 5 5 5 1 3 4 4 4 4 4 4 4 4 4 4 4 3 4 3 4 5 6 5 4 3 4 9 9 9 8 6 6 6 6 6 4 4 6
11 9 9 8 8 7 8 9 8 7 7 7 6 6 7 5 6 5 3 2 2 3 3 6 7 5 3 2 3 3 3 1 2 3 4 5 4 4 5 5 4 4 4 5 5 5 5 5 4 3 1 3 3 2 0 4 6 5 6 6 5 7 6
10 10 10 9 9 9 10 11 10 10 9 7 6 8 6 8 8 7 7 7 7 7 8 13 13 13 11 8 4 2 2 2 3 3 3 4 4 5 4 5 5 4 4 5 5 5 5 5 5 4 3 3 3 4 3 4 4 6 6 6 6 6 8
12 10 10 10 11 11 11 10 9 8 8 8 8 8 8 9 8 9 8 7 8 9 10 13 14 14 12 11 9 4 3 3 3 4 4 5 5 5 5 5 5 6 4 4 5 5 5 5 5 5 5 5 5 5 4 6 8 9 8 7 6 7 5
12 10 11 11 11 12 11 9 10 8 7 7 8 8 8 8 8 8 9 8 8 10 10 16 16 16 14 12 10 6 5 4 4 5 5 4 5 5 6 5 5 6 6 5 4 5 5 6 6 6 6 6 6 6 5 5 5 5 5 6 7 8 4
11 11 10 10 12 12 10 9 9 7 6 6 5 5 7 8 9 9 9 9 9 10 10 16 16 17 16 15 10 6 6 5 5 5 6 6 6 5 5 5 5 6 6 7 6 6 7 4 5 6 7 7 6 5 4 1 2 2 2 5 7 7 6
11 9 8 10 10 10 10 10 9 7 7 6 7 7 6 7 7 8 9 9 9 8 9 13 15 16 16 16 12 8 8 7 6 6 6 7 6 5 5 5 6 6 7 8 9 9 10 9 6 7 7 8 6 4 6 2 1 1 4 6 5 5 6
9 9 10 11 9 9 8 7 8 7 7 7 7 6 5 6 7 8 9 9 8 8 7 9 13 13 14 14 10 7 6 6 7 7 7 7 6 6 7 8 7 6 7 8 9 9 10 10 8 9 8 9 8 8 8 4 2 2 5 6 7 9 9
8 8 8 6 6 6 6 6 5 6 6 6 6 5 6 7 7 8 7 7 10 9 7 8 11 11 12 11 9 6 6 5 6 6 7 8 7 5 6 6 7 8 7 9 10 8 11 10 9 9 10 8 9 9 9 7 6 4 3 4 4 6 6
8 7 6 5 5 4 3 4 6 6 5 4 5 5 5 6 7 7 7 7 7 7 7 7 8 11 10 10 10 6 5 5 6 6 7 7 8 8 7 7 6 6 9 11 13 11 10 12 10 9 6 7 7 11 6 5 6 7 7 6 5 4 5
6 6 4 5 5 5 6 6 6 7 4 3 3 5 5 4 5 5 4 4 5 5 5 6 7 10 11 10 10 8 5 4 4 5 6 6 6 8 8 7 6 7 9 10 11 13 12 10 11 8 8 8 10 6 7 6 8 7 6 6 6 5 6
6 5 4 4 6 5 4 3 3 2 1 1 3 4 5 6 6 6 6 6 7 7 7 10 9 10 11 11 10 9 6 5 5 6 7 7 6 6 7 8 7 7 9 9 10 11 14 14 12 7 9 12 8 9 8 5 6 6 6 6 5 5 5
5 4 5 5 5 5 4 4 3 4 5 5 6 7 6 6 5 5 5 5 5 7 8 8 12 11 13 13 11 10 7 5 6 4 5 7 7 8 8 9 9 11 11 10 10 11 12 14 12 10 14 14 12 10 8 6 7 6 6 5 6 7 7
5 4 4 4 4 5 5 5 4 5 5 5 5 6 6 6 6 7 7 7 6 6 6 6 8 11 12 14 13 11 10 9 6 5 5 5 6 7 8 9 10 15 16 16 13 11 12 13 10 14 14 15 13 9 7 6 7 7 7 7 6 7 7
Wind_Direction
152 159 153 126 95 111 96 106 105 89 93 116 126 137 146 148 142 146 147 148 152 148 150 176 167 161 148 122 140 151 142 171 165 137 169 182 169 186 14 37 70 86 74 58 129 151 134 133 95 63 66 68 65 54 55 48 37 32 34 37 51 48 43
126 124 110 84 89 86 95 80 94 83 73 73 108 137 145 156 162 155 154 150 152 156 167 154 157 166 166 155 162 163 169 163 173 166 160 189 162 105 62 39 68 73 61 66 93 95 138 126 118 133 122 80 68 42 28 34 34 29 30 39 55 52 44
101 82 88 89 81 92 107 93 98 95 91 100 92 122 146 163 156 148 152 163 165 160 160 160 157 166 173 172 178 173 167 164 169 166 182 122 109 130 148 166 119 101 69 74 62 101 59 58 148 157 154 141 125 16 8 16 21 19 27 38 49 45 44
117 114 100 83 89 88 106 76 68 60 50 64 79 77 107 131 156 159 155 164 168 168 160 160 165 173 180 180 167 156 164 164 171 168 130 145 152 132 156 172 163 164 172 173 172 156 133 118 107 129 115 60 123 116 21 9 32 21 35 38 47 41 43
139 142 144 152 154 141 130 109 77 77 51 56 61 85 72 77 111 138 147 152 170 173 177 175 168 169 167 158 156 163 168 166 154 154 151 159 166 153 181 174 201 184 165 158 156 143 141 148 140 144 133 117 73 35 65 16 41 48 38 41 25 41 20
151 152 149 142 156 143 145 129 121 124 119 100 123 119 69 74 95 116 150 162 172 190 184 170 165 159 157 161 166 163 165 171 176 165 165 175 173 171 191 187 181 168 169 117 121 115 89 122 130 125 41 82 126 133 134 52 89 336 90 82 99 21 19
157 149 147 148 160 159 162 156 159 161 163 175 170 155 172 126 102 118 138 139 130 135 152 152 146 153 158 165 164 167 175 177 160 171 168 166 179 181 154 154 180 177 144 131 129 129 134 129 137 139 131 66 77 130 322 32 338 138 207 70 157 151 58
149 145 151 152 151 155 173 149 159 159 151 177 157 157 114 114 116 111 113 107 111 115 115 119 120 121 134 136 153 140 128 156 162 151 147 155 163 168 174 168 154 151 139 135 144 148 154 150 146 149 137 126 75 37 14 325 325 88 205 287 229 195 182
135 131 131 142 158 163 163 158 161 165 155 137 126 117 95 108 123 109 103 108 118 113 105 108 111 112 116 116 95 104 107 109 141 152 169 169 173 174 170 136 138 165 141 144 152 156 152 150 145 151 149 143 143 153 350 61 341 297 197 154 299 226 210
149 155 159 163 164 158 152 154 151 154 133 128 127 112 93 78 95 108 103 102 102 112 108 107 112 113 110 108 120 126 129 129 128 159 165 175 172 157 144 161 166 158 153 142 135 135 135 144 153 156 161 158 157 137 148 172 232 222 251 209 160 217 197
159 157 155 156 156 142 138 136 128 130 142 139 127 116 102 91 80 86 102 92 95 98 112 114 116 119 113 102 117 110 136 133 118 114 144 152 151 148 138 147 156 163 149 155 160 153 150 152 153 164 158 134 146 146 157 161 214 207 196 229 226 172 210
146 143 143 140 142 143 153 161 157 144 126 123 122 122 110 101 101 88 93 101 91 93 90 97 114 113 120 119 115 114 105 117 116 105 99 130 146 144 148 155 170 162 152 159 151 147 141 150 156 149 137 142 154 148 150 136 145 232 177 195 233 245 196
139 140 146 146 149 157 162 159 149 138 145 127 124 125 117 113 117 114 103 104 102 95 91 75 84 96 93 93 107 103 88 99 96 101 92 73 105 121 134 147 173 168 150 142 148 156 157 159 156 157 153 144 117 123 134 141 153 185 205 200 204 214 209
126 128 133 148 146 154 155 153 157 145 120 128 135 119 110 115 118 121 115 105 110 109 105 90 73 87 87 83 69 98 97 93 106 95 101 83 77 103 113 135 155 160 155 156 161 155 155 156 150 140 138 141 134 147 142 121 128 128 195 241 223 227 190
139 138 137 142 143 149 151 154 150 132 132 145 135 129 115 116 115 117 109 106 101 101 100 104 102 104 109 99 83 79 109 106 101 93 92 99 87 94 104 119 128 136 156 153 159 161 157 150 156 153 167 165 161 166 177 111 141 137 186 217 235 158 174
145 142 137 142 147 149 147 147 151 139 141 132 98 117 131 124 120 108 102 101 105 106 112 109 106 112 117 119 117 101 101 122 125 122 111 120 119 122 105 114 119 128 133 134 149 145 150 156 158 172 178 175 173 178 186 154 129 132 167 207 207 174 180
125 137 141 149 148 139 134 137 138 129 135 132 117 90 103 116 107 107 104 99 100 107 103 106 99 99 114 128 125 121 112 97 91 120 139 145 136 126 131 112 110 123 131 126 142 148 157 158 175 185 180 185 178 184 189 183 165 133 177 165 213 194 183
114 123 144 141 133 129 133 132 128 133 126 114 122 114 91 94 97 110 124 134 129 128 130 124 117 116 113 105 121 128 124 118 116 122 146 158 147 136 136 135 148 136 134 123 134 144 159 169 185 180 194 184 186 175 179 194 188 145 144 182 197 189 156
102 123 170 146 143 141 139 132 126 121 133 131 116 119 129 112 127 120 130 135 128 141 143 139 138 145 135 122 107 104 112 122 137 142 155 186 163 156 149 151 157 154 150 149 166 161 163 172 165 181 186 189 174 159 173 182 171 165 165 184 174 160 199
49 56 28 27 101 121 128 131 133 136 142 140 148 145 145 138 137 138 147 141 130 134 132 130 125 127 137 136 135 133 125 115 120 132 171 274 355 5 80 117 149 159 167 160 157 175 170 165 175 183 188 177 165 163 172 180 171 164 174 154 168 198 173
65 50 61 50 28 30 64 100 124 134 133 129 135 157 174 168 160 139 152 136 126 132 130 134 128 125 134 151 144 142 145 136 126 116 62 10 37 46 55 44 352 245 201 183 174 174 167 176 163 176 170 158 159 160 173 165 160 159 157 175 178 186 195
89 62 83 86 74 57 48 58 69 99 104 97 94 173 181 153 153 145 116 113 128 127 147 172 164 158 149 162 164 165 159 145 148 153 159 193 273 240 156 161 188 201 228 248 236 197 195 176 164 168 188 163 162 169 158 169 173 162 163 173 202 26 166
74 68 47 58 57 53 46 36 26 33 44 58 57 54 103 136 158 179 174 119 93 164 176 176 184 180 193 167 168 161 151 157 161 169 179 205 260 243 229 198 193 213 232 230 209 219 219 222 221 191 171 168 169 166 171 172 182 189 176 187 208 185 198
56 51 43 44 50 51 50 52 46 36 33 37 40 37 54 43 20 12 138 147 338 331 4 38 30 9 353 352 4 165 171 177 170 171 179 192 229 250 251 215 200 209 212 215 205 209 223 241 263 322 194 193 180 171 168 178 205 183 187 211 190 182 213
61 55 52 44 46 46 48 48 37 25 30 37 35 50 54 53 50 32 31 37 40 3 4 20 24 47 50 8 2 356 347 284 211 195 191 196 224 232 251 260 242 212 215 211 203 198 209 215 226 245 207 183 213 258 158 165 181 179 195 202 198 215 202
56 57 51 50 48 47 45 44 34 25 23 10 27 44 36 46 43 38 44 46 36 26 30 17 15 10 6 5 0 1 6 17 332 301 284 261 249 244 243 254 271 240 230 212 210 209 206 201 181 184 179 158 157 169 159 115 118 175 170 192 209 219 208
57 50 50 51 52 49 44 41 35 31 25 23 29 32 33 40 40 39 35 37 41 40 37 16 25 24 22 18 7 352 303 295 263 253 252 250 254 257 252 255 268 273 245 205 213 205 206 210 187 169 175 182 186 167 152 162 158 156 172 186 190 219 221
56 48 46 44 50 52 47 38 32 28 33 31 25 27 30 37 35 39 35 38 52 47 31 24 29 28 27 22 5 4 359 349 324 302 283 255 251 252 256 250 251 266 292 281 232 218 210 213 201 204 196 201 196 195 193 191 190 176 169 167 177 210 191
57 49 46 44 46 47 44 38 27 10 31 41 37 36 39 44 40 39 35 38 49 46 32 29 30 29 26 19 19 31 16 358 331 316 303 291 274 264 255 239 233 246 253 261 256 215 217 202 204 217 222 222 216 210 220 304 347 320 242 191 194 201 196
64 55 56 57 48 47 39 33 26 12 23 31 39 37 40 46 42 45 41 40 44 41 32 25 30 30 27 20 23 16 11 1 349 329 308 304 303 291 266 239 239 246 244 245 236 206 195 173 200 216 230 231 236 229 242 202 125 128 233 242 242 236 231
63 61 51 52 47 47 44 42 37 19 21 15 31 28 36 48 45 45 43 38 37 42 31 27 33 31 28 22 23 20 3 357 340 338 326 324 323 315 303 301 281 257 254 254 251 218 189 176 197 209 213 224 224 229 244 207 147 47 83 94 91 89 93
62 61 66 67 64 67 65 65 46 39 23 15 15 12 24 40 39 39 39 40 36 39 27 18 23 28 32 27 21 10 9 0 347 339 330 318 317 312 309 306 294 281 274 273 273 229 196 189 207 209 216 217 228 232 236 179 172 159 137 100 87 98 70
63 62 65 64 60 68 87 74 68 67 38 12 359 15 26 42 45 35 24 28 28 31 26 12 10 14 25 27 23 13 1 10 356 337 330 320 316 311 303 298 289 274 269 273 275 264 218 203 211 221 212 207 222 240 212 144 174 181 182 175 144 112 114
73 69 68 70 63 50 39 42 38 46 43 19 21 23 23 36 49 44 39 38 33 25 21 8 1 8 7 13 17 23 2 9 345 331 320 312 305 305 304 298 294 289 270 259 259 265 267 232 223 232 225 224 222 219 123 171 194 189 148 143 142 132 131
61 63 61 64 64 57 52 67 67 86 139 82 52 51 29 31 27 21 14 17 19 8 0 3 355 354 358 360 4 10 11 350 350 329 324 318 314 307 306 306 301 293 287 274 259 258 260 268 250 226 241 241 226 162 176 175 154 156 153 143 148 141 138
40 39 37 39 52 48 41 46 31 30 28 21 21 20 22 21 22 14 12 13 11 1 358 356 354 345 342 345 348 349 352 343 336 334 320 312 310 304 308 306 299 300 295 282 263 251 252 251 258 244 242 242 236 190 156 159 160 158 153 160 150 154 160
39 35 34 33 40 38 24 19 27 27 26 27 17 12 3 7 6 6 359 349 351 353 350 353 340 336 331 332 334 332 330 328 322 302 295 282 290 291 298 300 304 310 308 304 294 269 247 242 235 235 233 234 226 191 173 157 177 174 165 155 166 164 168